User: anonymous   Login
Location: Unspecified
(0.0000°N, 0.0000°E)
Time: 12:29:22
(UTC+02:00)
Language:

Cosmos 1300 - Orbit

View from above orbital plane
View from above orbital plane
View from above satellite
View from above satellite

Ground track
Ground track

The orbit data is extracted from the following two-line orbital elements,

1 12785U 81082A   16209.11936110  .00000428  00000-0  20559-4 0  9991
2 12785  82.5028  34.4919 0000683  48.6718  90.6201 15.16167768902581
Epoch (UTC): 27 July 2016 02:51:52
Eccentricity: 0.0000683
inclination: 82.5028°
perigee height: 517 km
apogee height: 518 km
right ascension of ascending node: 34.4919°
argument of perigee: 48.6718°
revolutions per day: 15.16167768
mean anomaly at epoch: 90.6201°
orbit number at epoch: 90258

The dashed part of the orbit path shows where the satellite is in the earth's shadow,  

DLR